owner,sensor,date,latitude,longitude,vertical_datum,wind_speed,wind_to_direction,wind_speed_of_gust,qcFlag 
LUMCON,ioos:station:LUMCON:102:1,2017-03-01T00:00:00Z,29.1870,-90.6093,0.0,7.0,153.0,-9999.0,'1111122,1111122,1111122' 
LUMCON,ioos:station:LUMCON:102:1,2017-03-01T00:15:00Z,29.1870,-90.6093,0.0,8.2,153.0,-9999.0,'1111122,1111122,1111122' 
LUMCON,ioos:station:LUMCON:102:1,2017-03-01T00:30:00Z,29.1870,-90.6093,0.0,7.6,152.0,-9999.0,'1111122,1111122,1111122' 
LUMCON,ioos:station:LUMCON:102:1,2017-03-01T00:45:00Z,29.1870,-90.6093,0.0,7.0,153.0,-9999.0,'1111122,1111122,1111122' 
LUMCON,ioos:station:LUMCON:102:1,2017-03-01T01:00:00Z,29.1870,-90.6093,0.0,6.8,155.0,-9999.0,'1111122,1111122,1111122' 
LUMCON,ioos:station:LUMCON:102:1,2017-03-01T01:15:00Z,29.1870,-90.6093,0.0,8.4,153.0,-9999.0,'1111122,1111122,1111122' 
LUMCON,ioos:station:LUMCON:102:1,2017-03-01T01:30:00Z,29.1870,-90.6093,0.0,8.3,165.0,-9999.0,'1111122,1111122,1111122' 
LUMCON,ioos:station:LUMCON:102:1,2017-03-01T01:45:00Z,29.1870,-90.6093,0.0,8.1,153.0,-9999.0,'1111122,1111122,1111122' 
LUMCON,ioos:station:LUMCON:102:1,2017-03-01T02:00:00Z,29.1870,-90.6093,0.0,7.5,160.0,-9999.0,'1111122,1111122,1111122' 
LUMCON,ioos:station:LUMCON:102:1,2017-03-01T02:15:00Z,29.1870,-90.6093,0.0,7.2,164.0,-9999.0,'1111122,1111122,1111122' 
LUMCON,ioos:station:LUMCON:102:1,2017-03-01T02:30:00Z,29.1870,-90.6093,0.0,6.5,160.0,-9999.0,'1111122,1111122,1111122' 
LUMCON,ioos:station:LUMCON:102:1,2017-03-01T02:45:00Z,29.1870,-90.6093,0.0,7.2,156.0,-9999.0,'1111122,1111122,1111122' 
LUMCON,ioos:station:LUMCON:102:1,2017-03-01T03:00:00Z,29.1870,-90.6093,0.0,8.2,153.0,-9999.0,'1111122,1111122,1111122' 
LUMCON,ioos:station:LUMCON:102:1,2017-03-01T03:15:00Z,29.1870,-90.6093,0.0,6.9,155.0,-9999.0,'1111122,1111122,1111122' 
LUMCON,ioos:station:LUMCON:102:1,2017-03-01T03:30:00Z,29.1870,-90.6093,0.0,7.5,154.0,-9999.0,'1111122,1111122,1111122' 
LUMCON,ioos:station:LUMCON:102:1,2017-03-01T03:45:00Z,29.1870,-90.6093,0.0,7.2,160.0,-9999.0,'1111122,1111122,1111122' 
LUMCON,ioos:station:LUMCON:102:1,2017-03-01T04:00:00Z,29.1870,-90.6093,0.0,8.4,158.0,-9999.0,'1111122,1111122,1111122' 
LUMCON,ioos:station:LUMCON:102:1,2017-03-01T04:15:00Z,29.1870,-90.6093,0.0,8.5,159.0,-9999.0,'1111122,1111122,1111122' 
LUMCON,ioos:station:LUMCON:102:1,2017-03-01T04:30:00Z,29.1870,-90.6093,0.0,7.0,166.0,-9999.0,'1111122,1111122,1111122' 
LUMCON,ioos:station:LUMCON:102:1,2017-03-01T04:45:00Z,29.1870,-90.6093,0.0,6.1,166.0,-9999.0,'1111122,1111122,1111122' 
LUMCON,ioos:station:LUMCON:102:1,2017-03-01T05:00:00Z,29.1870,-90.6093,0.0,6.5,161.0,-9999.0,'1111122,1111122,1111122' 
LUMCON,ioos:station:LUMCON:102:1,2017-03-01T05:15:00Z,29.1870,-90.6093,0.0,7.5,159.0,-9999.0,'1111122,1111122,1111122' 
LUMCON,ioos:station:LUMCON:102:1,2017-03-01T05:30:00Z,29.1870,-90.6093,0.0,8.5,161.0,-9999.0,'1111122,1111122,1111122' 
LUMCON,ioos:station:LUMCON:102:1,2017-03-01T05:45:00Z,29.1870,-90.6093,0.0,8.3,158.0,-9999.0,'1111122,1111122,1111122' 
LUMCON,ioos:station:LUMCON:102:1,2017-03-01T06:00:00Z,29.1870,-90.6093,0.0,6.5,161.0,-9999.0,'1111122,1111122,1111122' 
LUMCON,ioos:station:LUMCON:102:1,2017-03-01T06:15:00Z,29.1870,-90.6093,0.0,7.5,155.0,-9999.0,'1111122,1111122,1111122' 
LUMCON,ioos:station:LUMCON:102:1,2017-03-01T06:30:00Z,29.1870,-90.6093,0.0,9.0,155.0,-9999.0,'1111122,1111122,1111122' 
LUMCON,ioos:station:LUMCON:102:1,2017-03-01T06:45:00Z,29.1870,-90.6093,0.0,8.6,156.0,-9999.0,'1111122,1111122,1111122' 
LUMCON,ioos:station:LUMCON:102:1,2017-03-01T07:00:00Z,29.1870,-90.6093,0.0,7.7,162.0,-9999.0,'1111122,1111122,1111122' 
LUMCON,ioos:station:LUMCON:102:1,2017-03-01T07:15:00Z,29.1870,-90.6093,0.0,9.2,161.0,-9999.0,'1111122,1111122,1111122' 
LUMCON,ioos:station:LUMCON:102:1,2017-03-01T07:30:00Z,29.1870,-90.6093,0.0,9.1,165.0,-9999.0,'1111122,1111122,1111122' 
LUMCON,ioos:station:LUMCON:102:1,2017-03-01T07:45:00Z,29.1870,-90.6093,0.0,8.7,157.0,-9999.0,'1111122,1111122,1111122' 
LUMCON,ioos:station:LUMCON:102:1,2017-03-01T08:00:00Z,29.1870,-90.6093,0.0,8.9,159.0,-9999.0,'1111122,1111122,1111122' 
LUMCON,ioos:station:LUMCON:102:1,2017-03-01T08:15:00Z,29.1870,-90.6093,0.0,9.1,159.0,-9999.0,'1111122,1111122,1111122' 
LUMCON,ioos:station:LUMCON:102:1,2017-03-01T08:30:00Z,29.1870,-90.6093,0.0,8.7,162.0,-9999.0,'1111122,1111122,1111122' 
LUMCON,ioos:station:LUMCON:102:1,2017-03-01T08:45:00Z,29.1870,-90.6093,0.0,9.5,159.0,-9999.0,'1111122,1111122,1111122' 
LUMCON,ioos:station:LUMCON:102:1,2017-03-01T09:00:00Z,29.1870,-90.6093,0.0,8.5,165.0,-9999.0,'1111122,1111122,1111122' 
LUMCON,ioos:station:LUMCON:102:1,2017-03-01T09:15:00Z,29.1870,-90.6093,0.0,8.4,167.0,-9999.0,'1111122,1111122,1111122' 
LUMCON,ioos:station:LUMCON:102:1,2017-03-01T09:30:00Z,29.1870,-90.6093,0.0,7.6,172.0,-9999.0,'1111122,1111122,1111122' 
LUMCON,ioos:station:LUMCON:102:1,2017-03-01T09:45:00Z,29.1870,-90.6093,0.0,6.8,171.0,-9999.0,'1111122,1111122,1111122' 
LUMCON,ioos:station:LUMCON:102:1,2017-03-01T10:00:00Z,29.1870,-90.6093,0.0,6.7,173.0,-9999.0,'1111122,1111122,1111122' 
LUMCON,ioos:station:LUMCON:102:1,2017-03-01T10:15:00Z,29.1870,-90.6093,0.0,6.5,174.0,-9999.0,'1111122,1111122,1111122' 
LUMCON,ioos:station:LUMCON:102:1,2017-03-01T10:30:00Z,29.1870,-90.6093,0.0,7.3,176.0,-9999.0,'1111122,1111122,1111122' 
LUMCON,ioos:station:LUMCON:102:1,2017-03-01T10:45:00Z,29.1870,-90.6093,0.0,6.4,176.0,-9999.0,'1111122,1111122,1111122' 
LUMCON,ioos:station:LUMCON:102:1,2017-03-01T11:00:00Z,29.1870,-90.6093,0.0,7.0,174.0,-9999.0,'1111122,1111122,1111122' 
LUMCON,ioos:station:LUMCON:102:1,2017-03-01T11:15:00Z,29.1870,-90.6093,0.0,7.3,167.0,-9999.0,'1111122,1111122,1111122' 
LUMCON,ioos:station:LUMCON:102:1,2017-03-01T11:30:00Z,29.1870,-90.6093,0.0,6.7,168.0,-9999.0,'1111122,1111122,1111122' 
LUMCON,ioos:station:LUMCON:102:1,2017-03-01T11:45:00Z,29.1870,-90.6093,0.0,6.6,175.0,-9999.0,'1111122,1111122,1111122' 
LUMCON,ioos:station:LUMCON:102:1,2017-03-01T12:00:00Z,29.1870,-90.6093,0.0,6.4,178.0,-9999.0,'1111122,1111122,1111122' 
LUMCON,ioos:station:LUMCON:102:1,2017-03-01T12:15:00Z,29.1870,-90.6093,0.0,5.9,190.0,-9999.0,'1111122,1111122,1111122' 
LUMCON,ioos:station:LUMCON:102:1,2017-03-01T12:30:00Z,29.1870,-90.6093,0.0,5.6,183.0,-9999.0,'1111122,1111122,1111122' 
LUMCON,ioos:station:LUMCON:102:1,2017-03-01T12:45:00Z,29.1870,-90.6093,0.0,4.7,191.0,-9999.0,'1111122,1111122,1111122' 
LUMCON,ioos:station:LUMCON:102:1,2017-03-01T13:00:00Z,29.1870,-90.6093,0.0,6.9,182.0,-9999.0,'1111122,1111122,1111122' 
LUMCON,ioos:station:LUMCON:102:1,2017-03-01T13:15:00Z,29.1870,-90.6093,0.0,6.8,178.0,-9999.0,'1111122,1111122,1111122' 
LUMCON,ioos:station:LUMCON:102:1,2017-03-01T13:30:00Z,29.1870,-90.6093,0.0,6.9,179.0,-9999.0,'1111122,1111122,1111122' 
LUMCON,ioos:station:LUMCON:102:1,2017-03-01T13:45:00Z,29.1870,-90.6093,0.0,6.0,186.0,-9999.0,'1111122,1111122,1111122' 
LUMCON,ioos:station:LUMCON:102:1,2017-03-01T14:00:00Z,29.1870,-90.6093,0.0,6.0,207.0,-9999.0,'1111122,1111122,1111122' 
LUMCON,ioos:station:LUMCON:102:1,2017-03-01T14:15:00Z,29.1870,-90.6093,0.0,4.2,211.0,-9999.0,'1111122,1111122,1111122' 
LUMCON,ioos:station:LUMCON:102:1,2017-03-01T14:30:00Z,29.1870,-90.6093,0.0,4.3,219.0,-9999.0,'1111122,1111122,1111122' 
LUMCON,ioos:station:LUMCON:102:1,2017-03-01T14:45:00Z,29.1870,-90.6093,0.0,4.3,218.0,-9999.0,'1111122,1111122,1111122' 
LUMCON,ioos:station:LUMCON:102:1,2017-03-01T15:00:00Z,29.1870,-90.6093,0.0,5.0,198.0,-9999.0,'1111122,1111122,1111122' 
LUMCON,ioos:station:LUMCON:102:1,2017-03-01T15:15:00Z,29.1870,-90.6093,0.0,5.8,193.0,-9999.0,'1111122,1111122,1111122' 
LUMCON,ioos:station:LUMCON:102:1,2017-03-01T15:30:00Z,29.1870,-90.6093,0.0,6.2,195.0,-9999.0,'1111122,1111122,1111122' 
LUMCON,ioos:station:LUMCON:102:1,2017-03-01T15:45:00Z,29.1870,-90.6093,0.0,6.4,186.0,-9999.0,'1111122,1111122,1111122' 
LUMCON,ioos:station:LUMCON:102:1,2017-03-01T16:00:00Z,29.1870,-90.6093,0.0,4.5,184.0,-9999.0,'1111122,1111122,1111122' 
LUMCON,ioos:station:LUMCON:102:1,2017-03-01T16:15:00Z,29.1870,-90.6093,0.0,3.1,220.0,-9999.0,'1111122,1111122,1111122' 
LUMCON,ioos:station:LUMCON:102:1,2017-03-01T16:30:00Z,29.1870,-90.6093,0.0,3.6,240.0,-9999.0,'1111122,1111122,1111122' 
LUMCON,ioos:station:LUMCON:102:1,2017-03-01T16:45:00Z,29.1870,-90.6093,0.0,6.6,254.0,-9999.0,'1111122,1111122,1111122' 
LUMCON,ioos:station:LUMCON:102:1,2017-03-01T17:00:00Z,29.1870,-90.6093,0.0,6.4,235.0,-9999.0,'1111122,1111122,1111122' 
LUMCON,ioos:station:LUMCON:102:1,2017-03-01T17:15:00Z,29.1870,-90.6093,0.0,7.1,227.0,-9999.0,'1111122,1111122,1111122' 
LUMCON,ioos:station:LUMCON:102:1,2017-03-01T17:30:00Z,29.1870,-90.6093,0.0,6.9,240.0,-9999.0,'1111122,1111122,1111122' 
LUMCON,ioos:station:LUMCON:102:1,2017-03-01T17:45:00Z,29.1870,-90.6093,0.0,5.2,234.0,-9999.0,'1111122,1111122,1111122' 
LUMCON,ioos:station:LUMCON:102:1,2017-03-01T18:00:00Z,29.1870,-90.6093,0.0,5.8,235.0,-9999.0,'1111122,1111122,1111122' 
LUMCON,ioos:station:LUMCON:102:1,2017-03-01T18:15:00Z,29.1870,-90.6093,0.0,5.2,243.0,-9999.0,'1111122,1111122,1111122' 
LUMCON,ioos:station:LUMCON:102:1,2017-03-01T18:30:00Z,29.1870,-90.6093,0.0,4.6,243.0,-9999.0,'1111122,1111122,1111122' 
LUMCON,ioos:station:LUMCON:102:1,2017-03-01T18:45:00Z,29.1870,-90.6093,0.0,5.0,231.0,-9999.0,'1111122,1111122,1111122' 
LUMCON,ioos:station:LUMCON:102:1,2017-03-01T19:00:00Z,29.1870,-90.6093,0.0,4.1,229.0,-9999.0,'1111122,1111122,1111122' 
LUMCON,ioos:station:LUMCON:102:1,2017-03-01T19:15:00Z,29.1870,-90.6093,0.0,6.3,240.0,-9999.0,'1111122,1111122,1111122' 
LUMCON,ioos:station:LUMCON:102:1,2017-03-01T19:30:00Z,29.1870,-90.6093,0.0,5.6,242.0,-9999.0,'1111122,1111122,1111122' 
LUMCON,ioos:station:LUMCON:102:1,2017-03-01T19:45:00Z,29.1870,-90.6093,0.0,5.2,231.0,-9999.0,'1111122,1111122,1111122' 
LUMCON,ioos:station:LUMCON:102:1,2017-03-01T20:00:00Z,29.1870,-90.6093,0.0,4.6,212.0,-9999.0,'1111122,1111122,1111122' 
LUMCON,ioos:station:LUMCON:102:1,2017-03-01T20:15:00Z,29.1870,-90.6093,0.0,4.3,211.0,-9999.0,'1111122,1111122,1111122' 
LUMCON,ioos:station:LUMCON:102:1,2017-03-01T20:30:00Z,29.1870,-90.6093,0.0,4.2,202.0,-9999.0,'1111122,1111122,1111122' 
LUMCON,ioos:station:LUMCON:102:1,2017-03-01T20:45:00Z,29.1870,-90.6093,0.0,4.8,189.0,-9999.0,'1111122,1111122,1111122' 
LUMCON,ioos:station:LUMCON:102:1,2017-03-01T21:00:00Z,29.1870,-90.6093,0.0,4.7,180.0,-9999.0,'1111122,1111122,1111122' 
LUMCON,ioos:station:LUMCON:102:1,2017-03-01T21:15:00Z,29.1870,-90.6093,0.0,5.6,182.0,-9999.0,'1111122,1111122,1111122' 
LUMCON,ioos:station:LUMCON:102:1,2017-03-01T21:30:00Z,29.1870,-90.6093,0.0,4.7,183.0,-9999.0,'1111122,1111122,1111122' 
LUMCON,ioos:station:LUMCON:102:1,2017-03-01T21:45:00Z,29.1870,-90.6093,0.0,4.2,177.0,-9999.0,'1111122,1111122,1111122' 
LUMCON,ioos:station:LUMCON:102:1,2017-03-01T22:00:00Z,29.1870,-90.6093,0.0,4.4,180.0,-9999.0,'1111122,1111122,1111122' 
LUMCON,ioos:station:LUMCON:102:1,2017-03-01T22:15:00Z,29.1870,-90.6093,0.0,4.1,182.0,-9999.0,'1111122,1111122,1111122' 
LUMCON,ioos:station:LUMCON:102:1,2017-03-01T22:30:00Z,29.1870,-90.6093,0.0,6.2,179.0,-9999.0,'1111122,1111122,1111122' 
LUMCON,ioos:station:LUMCON:102:1,2017-03-01T22:45:00Z,29.1870,-90.6093,0.0,6.0,178.0,-9999.0,'1111122,1111122,1111122' 
LUMCON,ioos:station:LUMCON:102:1,2017-03-01T23:00:00Z,29.1870,-90.6093,0.0,5.6,187.0,-9999.0,'1111122,1111122,1111122' 
LUMCON,ioos:station:LUMCON:102:1,2017-03-01T23:15:00Z,29.1870,-90.6093,0.0,4.5,189.0,-9999.0,'1111122,1111122,1111122' 
LUMCON,ioos:station:LUMCON:102:1,2017-03-01T23:30:00Z,29.1870,-90.6093,0.0,5.1,190.0,-9999.0,'1111122,1111122,1111122' 
LUMCON,ioos:station:LUMCON:102:1,2017-03-01T23:45:00Z,29.1870,-90.6093,0.0,5.1,195.0,-9999.0,'1111122,1111122,1111122' 
LUMCON,ioos:station:LUMCON:102:1,2017-03-02T00:00:00Z,29.1870,-90.6093,0.0,4.6,197.0,-9999.0,'1111122,1111122,1111122' 
LUMCON,ioos:station:LUMCON:102:1,2017-03-02T00:15:00Z,29.1870,-90.6093,0.0,5.1,203.0,-9999.0,'1111122,1111122,1111122' 
LUMCON,ioos:station:LUMCON:102:1,2017-03-02T00:30:00Z,29.1870,-90.6093,0.0,4.5,206.0,-9999.0,'1111122,1111122,1111122' 
LUMCON,ioos:station:LUMCON:102:1,2017-03-02T00:45:00Z,29.1870,-90.6093,0.0,4.0,219.0,-9999.0,'1111122,1111122,1111122' 
LUMCON,ioos:station:LUMCON:102:1,2017-03-02T01:00:00Z,29.1870,-90.6093,0.0,4.0,222.0,-9999.0,'1111122,1111122,1111122' 
LUMCON,ioos:station:LUMCON:102:1,2017-03-02T01:15:00Z,29.1870,-90.6093,0.0,4.3,234.0,-9999.0,'1111122,1111122,1111122' 
LUMCON,ioos:station:LUMCON:102:1,2017-03-02T01:30:00Z,29.1870,-90.6093,0.0,5.2,237.0,-9999.0,'1111122,1111122,1111122' 
LUMCON,ioos:station:LUMCON:102:1,2017-03-02T01:45:00Z,29.1870,-90.6093,0.0,4.7,238.0,-9999.0,'1111122,1111122,1111122' 
LUMCON,ioos:station:LUMCON:102:1,2017-03-02T02:00:00Z,29.1870,-90.6093,0.0,5.0,249.0,-9999.0,'1111122,1111122,1111122' 
LUMCON,ioos:station:LUMCON:102:1,2017-03-02T02:15:00Z,29.1870,-90.6093,0.0,4.8,238.0,-9999.0,'1111122,1111122,1111122' 
LUMCON,ioos:station:LUMCON:102:1,2017-03-02T02:30:00Z,29.1870,-90.6093,0.0,5.3,249.0,-9999.0,'1111122,1111122,1111122' 
LUMCON,ioos:station:LUMCON:102:1,2017-03-02T02:45:00Z,29.1870,-90.6093,0.0,5.1,261.0,-9999.0,'1111122,1111122,1111122' 
LUMCON,ioos:station:LUMCON:102:1,2017-03-02T03:00:00Z,29.1870,-90.6093,0.0,7.4,278.0,-9999.0,'1111122,1111122,1111122' 
LUMCON,ioos:station:LUMCON:102:1,2017-03-02T03:15:00Z,29.1870,-90.6093,0.0,7.7,297.0,-9999.0,'1111122,1111122,1111122' 
LUMCON,ioos:station:LUMCON:102:1,2017-03-02T03:30:00Z,29.1870,-90.6093,0.0,7.9,329.0,-9999.0,'1111122,1111122,1111122' 
LUMCON,ioos:station:LUMCON:102:1,2017-03-02T03:45:00Z,29.1870,-90.6093,0.0,10.0,359.0,-9999.0,'1111122,1111122,1111122' 
LUMCON,ioos:station:LUMCON:102:1,2017-03-02T04:00:00Z,29.1870,-90.6093,0.0,9.4,2.0,-9999.0,'1111122,1111122,1111122' 
LUMCON,ioos:station:LUMCON:102:1,2017-03-02T04:15:00Z,29.1870,-90.6093,0.0,13.2,17.0,-9999.0,'1111122,1111122,1111122' 
LUMCON,ioos:station:LUMCON:102:1,2017-03-02T04:30:00Z,29.1870,-90.6093,0.0,14.0,20.0,-9999.0,'1111122,1111122,1111122' 
LUMCON,ioos:station:LUMCON:102:1,2017-03-02T04:45:00Z,29.1870,-90.6093,0.0,12.4,16.0,-9999.0,'1111122,1111122,1111122' 
LUMCON,ioos:station:LUMCON:102:1,2017-03-02T05:00:00Z,29.1870,-90.6093,0.0,10.8,16.0,-9999.0,'1111122,1111122,1111122' 
LUMCON,ioos:station:LUMCON:102:1,2017-03-02T05:15:00Z,29.1870,-90.6093,0.0,15.9,7.0,-9999.0,'1111122,1111122,1111122' 
LUMCON,ioos:station:LUMCON:102:1,2017-03-02T05:30:00Z,29.1870,-90.6093,0.0,14.7,6.0,-9999.0,'1111122,1111122,1111122' 
LUMCON,ioos:station:LUMCON:102:1,2017-03-02T05:45:00Z,29.1870,-90.6093,0.0,14.3,1.0,-9999.0,'1111122,1111122,1111122' 
LUMCON,ioos:station:LUMCON:102:1,2017-03-02T06:00:00Z,29.1870,-90.6093,0.0,13.3,12.0,-9999.0,'1111122,1111122,1111122' 
LUMCON,ioos:station:LUMCON:102:1,2017-03-02T06:15:00Z,29.1870,-90.6093,0.0,12.8,10.0,-9999.0,'1111122,1111122,1111122' 
LUMCON,ioos:station:LUMCON:102:1,2017-03-02T06:30:00Z,29.1870,-90.6093,0.0,13.7,8.0,-9999.0,'1111122,1111122,1111122' 
LUMCON,ioos:station:LUMCON:102:1,2017-03-02T06:45:00Z,29.1870,-90.6093,0.0,12.1,11.0,-9999.0,'1111122,1111122,1111122' 
LUMCON,ioos:station:LUMCON:102:1,2017-03-02T07:00:00Z,29.1870,-90.6093,0.0,14.0,5.0,-9999.0,'1111122,1111122,1111122' 
LUMCON,ioos:station:LUMCON:102:1,2017-03-02T07:15:00Z,29.1870,-90.6093,0.0,15.8,19.0,-9999.0,'1111122,1111122,1111122' 
LUMCON,ioos:station:LUMCON:102:1,2017-03-02T07:30:00Z,29.1870,-90.6093,0.0,12.6,10.0,-9999.0,'1111122,1111122,1111122' 
LUMCON,ioos:station:LUMCON:102:1,2017-03-02T07:45:00Z,29.1870,-90.6093,0.0,12.9,8.0,-9999.0,'1111122,1111122,1111122' 
LUMCON,ioos:station:LUMCON:102:1,2017-03-02T08:00:00Z,29.1870,-90.6093,0.0,13.1,5.0,-9999.0,'1111122,1111122,1111122' 
LUMCON,ioos:station:LUMCON:102:1,2017-03-02T08:15:00Z,29.1870,-90.6093,0.0,12.6,4.0,-9999.0,'1111122,1111122,1111122' 
LUMCON,ioos:station:LUMCON:102:1,2017-03-02T08:30:00Z,29.1870,-90.6093,0.0,12.2,-9999.0,-9999.0,'1111122,1111122,1111122' 
LUMCON,ioos:station:LUMCON:102:1,2017-03-02T08:45:00Z,29.1870,-90.6093,0.0,11.7,14.0,-9999.0,'1111122,1111122,1111122' 
LUMCON,ioos:station:LUMCON:102:1,2017-03-02T09:00:00Z,29.1870,-90.6093,0.0,11.5,13.0,-9999.0,'1111122,1111122,1111122' 
LUMCON,ioos:station:LUMCON:102:1,2017-03-02T09:15:00Z,29.1870,-90.6093,0.0,13.4,3.0,-9999.0,'1111122,1111122,1111122' 
LUMCON,ioos:station:LUMCON:102:1,2017-03-02T09:30:00Z,29.1870,-90.6093,0.0,13.5,10.0,-9999.0,'1111122,1111122,1111122' 
LUMCON,ioos:station:LUMCON:102:1,2017-03-02T09:45:00Z,29.1870,-90.6093,0.0,13.4,4.0,-9999.0,'1111122,1111122,1111122' 
LUMCON,ioos:station:LUMCON:102:1,2017-03-02T10:00:00Z,29.1870,-90.6093,0.0,16.1,15.0,-9999.0,'1111122,1111122,1111122' 
LUMCON,ioos:station:LUMCON:102:1,2017-03-02T10:15:00Z,29.1870,-90.6093,0.0,14.4,14.0,-9999.0,'1111122,1111122,1111122' 
LUMCON,ioos:station:LUMCON:102:1,2017-03-02T10:30:00Z,29.1870,-90.6093,0.0,14.6,6.0,-9999.0,'1111122,1111122,1111122' 
LUMCON,ioos:station:LUMCON:102:1,2017-03-02T10:45:00Z,29.1870,-90.6093,0.0,13.8,7.0,-9999.0,'1111122,1111122,1111122' 
LUMCON,ioos:station:LUMCON:102:1,2017-03-02T11:00:00Z,29.1870,-90.6093,0.0,15.1,16.0,-9999.0,'1111122,1111122,1111122' 
LUMCON,ioos:station:LUMCON:102:1,2017-03-02T11:15:00Z,29.1870,-90.6093,0.0,12.8,1.0,-9999.0,'1111122,1111122,1111122' 
LUMCON,ioos:station:LUMCON:102:1,2017-03-02T11:30:00Z,29.1870,-90.6093,0.0,11.9,5.0,-9999.0,'1111122,1111122,1111122' 
LUMCON,ioos:station:LUMCON:102:1,2017-03-02T11:45:00Z,29.1870,-90.6093,0.0,14.5,17.0,-9999.0,'1111122,1111122,1111122' 
LUMCON,ioos:station:LUMCON:102:1,2017-03-02T12:00:00Z,29.1870,-90.6093,0.0,11.7,12.0,-9999.0,'1111122,1111122,1111122' 
LUMCON,ioos:station:LUMCON:102:1,2017-03-02T12:15:00Z,29.1870,-90.6093,0.0,13.6,12.0,-9999.0,'1111122,1111122,1111122' 
LUMCON,ioos:station:LUMCON:102:1,2017-03-02T12:30:00Z,29.1870,-90.6093,0.0,11.9,15.0,-9999.0,'1111122,1111122,1111122' 
LUMCON,ioos:station:LUMCON:102:1,2017-03-02T12:45:00Z,29.1870,-90.6093,0.0,12.2,7.0,-9999.0,'1111122,1111122,1111122' 
LUMCON,ioos:station:LUMCON:102:1,2017-03-02T13:00:00Z,29.1870,-90.6093,0.0,14.6,22.0,-9999.0,'1111122,1111122,1111122' 
LUMCON,ioos:station:LUMCON:102:1,2017-03-02T13:15:00Z,29.1870,-90.6093,0.0,15.4,22.0,-9999.0,'1111122,1111122,1111122' 
LUMCON,ioos:station:LUMCON:102:1,2017-03-02T13:30:00Z,29.1870,-90.6093,0.0,14.2,34.0,-9999.0,'1111122,1111122,1111122' 
LUMCON,ioos:station:LUMCON:102:1,2017-03-02T13:45:00Z,29.1870,-90.6093,0.0,11.0,34.0,-9999.0,'1111122,1111122,1111122' 
LUMCON,ioos:station:LUMCON:102:1,2017-03-02T14:00:00Z,29.1870,-90.6093,0.0,14.9,22.0,-9999.0,'1111122,1111122,1111122' 
LUMCON,ioos:station:LUMCON:102:1,2017-03-02T14:15:00Z,29.1870,-90.6093,0.0,15.3,27.0,-9999.0,'1111122,1111122,1111122' 
LUMCON,ioos:station:LUMCON:102:1,2017-03-02T14:30:00Z,29.1870,-90.6093,0.0,14.9,26.0,-9999.0,'1111122,1111122,1111122' 
LUMCON,ioos:station:LUMCON:102:1,2017-03-02T14:45:00Z,29.1870,-90.6093,0.0,12.8,32.0,-9999.0,'1111122,1111122,1111122' 
LUMCON,ioos:station:LUMCON:102:1,2017-03-02T15:00:00Z,29.1870,-90.6093,0.0,12.4,33.0,-9999.0,'1111122,1111122,1111122' 
LUMCON,ioos:station:LUMCON:102:1,2017-03-02T15:15:00Z,29.1870,-90.6093,0.0,14.3,22.0,-9999.0,'1111122,1111122,1111122' 
LUMCON,ioos:station:LUMCON:102:1,2017-03-02T15:30:00Z,29.1870,-90.6093,0.0,12.8,30.0,-9999.0,'1111122,1111122,1111122' 
LUMCON,ioos:station:LUMCON:102:1,2017-03-02T15:45:00Z,29.1870,-90.6093,0.0,11.5,22.0,-9999.0,'1111122,1111122,1111122' 
LUMCON,ioos:station:LUMCON:102:1,2017-03-02T16:00:00Z,29.1870,-90.6093,0.0,12.2,28.0,-9999.0,'1111122,1111122,1111122' 
LUMCON,ioos:station:LUMCON:102:1,2017-03-02T16:15:00Z,29.1870,-90.6093,0.0,11.8,32.0,-9999.0,'1111122,1111122,1111122' 
LUMCON,ioos:station:LUMCON:102:1,2017-03-02T16:30:00Z,29.1870,-90.6093,0.0,9.4,23.0,-9999.0,'1111122,1111122,1111122' 
LUMCON,ioos:station:LUMCON:102:1,2017-03-02T16:45:00Z,29.1870,-90.6093,0.0,10.6,16.0,-9999.0,'1111122,1111122,1111122' 
LUMCON,ioos:station:LUMCON:102:1,2017-03-02T17:00:00Z,29.1870,-90.6093,0.0,11.0,18.0,-9999.0,'1111122,1111122,1111122' 
LUMCON,ioos:station:LUMCON:102:1,2017-03-02T17:15:00Z,29.1870,-90.6093,0.0,11.3,12.0,-9999.0,'1111122,1111122,1111122' 
LUMCON,ioos:station:LUMCON:102:1,2017-03-02T17:30:00Z,29.1870,-90.6093,0.0,9.7,13.0,-9999.0,'1111122,1111122,1111122' 
LUMCON,ioos:station:LUMCON:102:1,2017-03-02T17:45:00Z,29.1870,-90.6093,0.0,7.3,23.0,-9999.0,'1111122,1111122,1111122' 
LUMCON,ioos:station:LUMCON:102:1,2017-03-02T18:00:00Z,29.1870,-90.6093,0.0,9.2,6.0,-9999.0,'1111122,1111122,1111122' 
LUMCON,ioos:station:LUMCON:102:1,2017-03-02T18:15:00Z,29.1870,-90.6093,0.0,9.6,26.0,-9999.0,'1111122,1111122,1111122' 
LUMCON,ioos:station:LUMCON:102:1,2017-03-02T18:30:00Z,29.1870,-90.6093,0.0,10.7,13.0,-9999.0,'1111122,1111122,1111122' 
LUMCON,ioos:station:LUMCON:102:1,2017-03-02T18:45:00Z,29.1870,-90.6093,0.0,11.4,13.0,-9999.0,'1111122,1111122,1111122' 
LUMCON,ioos:station:LUMCON:102:1,2017-03-02T19:00:00Z,29.1870,-90.6093,0.0,10.2,23.0,-9999.0,'1111122,1111122,1111122' 
LUMCON,ioos:station:LUMCON:102:1,2017-03-02T19:15:00Z,29.1870,-90.6093,0.0,11.7,18.0,-9999.0,'1111122,1111122,1111122' 
LUMCON,ioos:station:LUMCON:102:1,2017-03-02T19:30:00Z,29.1870,-90.6093,0.0,7.5,31.0,-9999.0,'1111122,1111122,1111122' 
LUMCON,ioos:station:LUMCON:102:1,2017-03-02T19:45:00Z,29.1870,-90.6093,0.0,8.6,19.0,-9999.0,'1111122,1111122,1111122' 
LUMCON,ioos:station:LUMCON:102:1,2017-03-02T20:00:00Z,29.1870,-90.6093,0.0,11.2,25.0,-9999.0,'1111122,1111122,1111122' 
LUMCON,ioos:station:LUMCON:102:1,2017-03-02T20:15:00Z,29.1870,-90.6093,0.0,9.6,25.0,-9999.0,'1111122,1111122,1111122' 
LUMCON,ioos:station:LUMCON:102:1,2017-03-02T20:30:00Z,29.1870,-90.6093,0.0,10.2,27.0,-9999.0,'1111122,1111122,1111122' 
LUMCON,ioos:station:LUMCON:102:1,2017-03-02T20:45:00Z,29.1870,-90.6093,0.0,9.1,18.0,-9999.0,'1111122,1111122,1111122' 
LUMCON,ioos:station:LUMCON:102:1,2017-03-02T21:00:00Z,29.1870,-90.6093,0.0,7.6,16.0,-9999.0,'1111122,1111122,1111122' 
LUMCON,ioos:station:LUMCON:102:1,2017-03-02T21:15:00Z,29.1870,-90.6093,0.0,8.7,23.0,-9999.0,'1111122,1111122,1111122' 
LUMCON,ioos:station:LUMCON:102:1,2017-03-02T21:30:00Z,29.1870,-90.6093,0.0,8.5,14.0,-9999.0,'1111122,1111122,1111122' 
LUMCON,ioos:station:LUMCON:102:1,2017-03-02T21:45:00Z,29.1870,-90.6093,0.0,8.6,14.0,-9999.0,'1111122,1111122,1111122' 
LUMCON,ioos:station:LUMCON:102:1,2017-03-02T22:00:00Z,29.1870,-90.6093,0.0,8.5,32.0,-9999.0,'1111122,1111122,1111122' 
LUMCON,ioos:station:LUMCON:102:1,2017-03-02T22:15:00Z,29.1870,-90.6093,0.0,8.5,25.0,-9999.0,'1111122,1111122,1111122' 
LUMCON,ioos:station:LUMCON:102:1,2017-03-02T22:30:00Z,29.1870,-90.6093,0.0,8.7,6.0,-9999.0,'1111122,1111122,1111122' 
LUMCON,ioos:station:LUMCON:102:1,2017-03-02T22:45:00Z,29.1870,-90.6093,0.0,8.9,9.0,-9999.0,'1111122,1111122,1111122' 
LUMCON,ioos:station:LUMCON:102:1,2017-03-02T23:00:00Z,29.1870,-90.6093,0.0,11.0,3.0,-9999.0,'1111122,1111122,1111122' 
LUMCON,ioos:station:LUMCON:102:1,2017-03-02T23:15:00Z,29.1870,-90.6093,0.0,9.1,14.0,-9999.0,'1111122,1111122,1111122' 
LUMCON,ioos:station:LUMCON:102:1,2017-03-02T23:30:00Z,29.1870,-90.6093,0.0,9.9,6.0,-9999.0,'1111122,1111122,1111122' 
LUMCON,ioos:station:LUMCON:102:1,2017-03-02T23:45:00Z,29.1870,-90.6093,0.0,9.1,4.0,-9999.0,'1111122,1111122,1111122' 
LUMCON,ioos:station:LUMCON:102:1,2017-03-03T00:00:00Z,29.1870,-90.6093,0.0,9.4,4.0,-9999.0,'1111122,1111122,1111122' 
LUMCON,ioos:station:LUMCON:102:1,2017-03-03T00:15:00Z,29.1870,-90.6093,0.0,10.8,8.0,-9999.0,'1111122,1111122,1111122' 
LUMCON,ioos:station:LUMCON:102:1,2017-03-03T00:30:00Z,29.1870,-90.6093,0.0,9.4,17.0,-9999.0,'1111122,1111122,1111122' 
LUMCON,ioos:station:LUMCON:102:1,2017-03-03T00:45:00Z,29.1870,-90.6093,0.0,8.5,16.0,-9999.0,'1111122,1111122,1111122' 
LUMCON,ioos:station:LUMCON:102:1,2017-03-03T01:00:00Z,29.1870,-90.6093,0.0,9.0,8.0,-9999.0,'1111122,1111122,1111122' 
LUMCON,ioos:station:LUMCON:102:1,2017-03-03T01:15:00Z,29.1870,-90.6093,0.0,8.4,16.0,-9999.0,'1111122,1111122,1111122' 
LUMCON,ioos:station:LUMCON:102:1,2017-03-03T01:30:00Z,29.1870,-90.6093,0.0,8.6,13.0,-9999.0,'1111122,1111122,1111122' 